| time (UTC) | temp F | wind direction | speed knots | gust knots | rain 1hr in | rain 24hr in | rain mn in | humidity % | barometer mb |
| 20260906234955 | 75 | 185 | 2.6 | 3.5 | 0.00 | 0.00 | 0.00 | 32 | 1018.1 |
| 20260906234449 | 76 | 205 | 3.5 | 5.2 | 0.00 | 0.00 | 0.00 | 32 | 1018.3 |
| 20260906233949 | 76 | 184 | 2.6 | 3.5 | 0.00 | 0.00 | 0.00 | 32 | 1018.4 |
| 20260906233449 | 76 | 195 | 2.6 | 3.5 | 0.00 | 0.00 | 0.00 | 31 | 1018.2 |
| 20260906232947 | 76 | 207 | 4.3 | 6.1 | 0.00 | 0.00 | 0.00 | 31 | 1018.3 |
| 20260906232443 | 76 | 177 | 2.6 | 3.5 | 0.00 | 0.00 | 0.00 | 32 | 1018.4 |
| 20260906231937 | 76 | 143 | 2.6 | 3.5 | 0.00 | 0.00 | 0.00 | 31 | 1018.2 |
| 20260906231427 | 77 | 161 | 3.5 | 5.2 | 0.00 | 0.00 | 0.00 | 30 | 1018.2 |
| 20260906230926 | 77 | 171 | 3.5 | 7.0 | 0.00 | 0.00 | 0.00 | 30 | 1018.4 |
| 20260906230421 | 77 | 189 | 2.6 | 2.6 | 0.00 | 0.00 | 0.00 | 30 | 1018.5 |
| 20260906225920 | 77 | 206 | 3.5 | 5.2 | 0.00 | 0.00 | 0.00 | 30 | 1018.7 |
| 20260906225415 | 77 | 201 | 0.9 | 1.7 | 0.00 | 0.00 | 0.00 | 30 | 1018.7 |
| 20260906224910 | 76 | 201 | 0.9 | 0.9 | 0.00 | 0.00 | 0.00 | 31 | 1018.9 |
| 20260906224407 | 76 | 203 | 2.6 | 2.6 | 0.00 | 0.00 | 0.00 | 32 | 1018.7 |
| 20260906223904 | 75 | 209 | 1.7 | 2.6 | 0.00 | 0.00 | 0.00 | 33 | 1018.8 |
| 20260906223359 | 75 | 224 | 3.5 | 3.5 | 0.00 | 0.00 | 0.00 | 33 | 1019.0 |
| 20260906222857 | 75 | 213 | 3.5 | 3.5 | 0.00 | 0.00 | 0.00 | 33 | 1018.8 |
| 20260906222356 | 75 | 199 | 3.5 | 5.2 | 0.00 | 0.00 | 0.00 | 34 | 1018.8 |
| 20260906221854 | 76 | 208 | 3.5 | 5.2 | 0.00 | 0.00 | 0.00 | 34 | 1018.9 |
| 20260906221354 | 77 | 212 | 3.5 | 5.2 | 0.00 | 0.00 | 0.00 | 33 | 1018.9 |
| 20260906220849 | 77 | 219 | 3.5 | 3.5 | 0.00 | 0.00 | 0.00 | 32 | 1018.9 |
| 20260906220344 | 78 | 209 | 3.5 | 5.2 | 0.00 | 0.00 | 0.00 | 31 | 1019.0 |
| 20260906215843 | 78 | 231 | 4.3 | 5.2 | 0.00 | 0.00 | 0.00 | 29 | 1019.0 |
| 20260906215338 | 78 | 241 | 4.3 | 5.2 | 0.00 | 0.00 | 0.00 | 28 | 1019.0 |
| 20260906214837 | 77 | 235 | 6.1 | 9.6 | 0.00 | 0.00 | 0.00 | 29 | 1018.9 |
| 20260906214336 | 78 | 209 | 7.0 | 7.8 | 0.00 | 0.00 | 0.00 | 28 | 1018.9 |
| 20260906213836 | 78 | 234 | 3.5 | 5.2 | 0.00 | 0.00 | 0.00 | 29 | 1019.1 |
| 20260906213336 | 78 | 209 | 5.2 | 7.0 | 0.00 | 0.00 | 0.00 | 29 | 1019.0 |
| 20260906212833 | 79 | 212 | 5.2 | 6.1 | 0.00 | 0.00 | 0.00 | 28 | 1019.3 |
| 20260906212328 | 80 | 201 | 3.5 | 5.2 | 0.00 | 0.00 | 0.00 | 27 | 1019.4 |
| 20260906211828 | 80 | 209 | 5.2 | 7.8 | 0.00 | 0.00 | 0.00 | 28 | 1019.4 |
| 20260906211323 | 78 | 231 | 4.3 | 5.2 | 0.00 | 0.00 | 0.00 | 29 | 1019.4 |
| 20260906210818 | 78 | 211 | 6.1 | 7.8 | 0.00 | 0.00 | 0.00 | 28 | 1019.3 |
| 20260906210318 | 78 | 237 | 3.5 | 3.5 | 0.00 | 0.00 | 0.00 | 28 | 1019.3 |
| 20260906205814 | 78 | 246 | 5.2 | 6.1 | 0.00 | 0.00 | 0.00 | 28 | 1019.5 |
| 20260906205310 | 79 | 210 | 2.6 | 3.5 | 0.00 | 0.00 | 0.00 | 27 | 1019.5 |
| 20260906204806 | 78 | 219 | 5.2 | 7.0 | 0.00 | 0.00 | 0.00 | 28 | 1019.5 |
| 20260906204304 | 79 | 208 | 6.1 | 7.8 | 0.00 | 0.00 | 0.00 | 27 | 1019.4 |
| 20260906203804 | 79 | 202 | 5.2 | 9.6 | 0.00 | 0.00 | 0.00 | 27 | 1019.5 |
| 20260906203300 | 79 | 194 | 0.9 | 1.7 | 0.00 | 0.00 | 0.00 | 27 | 1019.7 |
| 20260906202756 | 79 | 210 | 7.8 | 9.6 | 0.00 | 0.00 | 0.00 | 26 | 1019.9 |
| 20260906202256 | 79 | 205 | 3.5 | 5.2 | 0.00 | 0.00 | 0.00 | 26 | 1019.9 |
| 20260906201750 | 79 | 218 | 6.1 | 7.8 | 0.00 | 0.00 | 0.00 | 26 | 1019.6 |
| 20260906201250 | 79 | 248 | 8.7 | 11.3 | 0.00 | 0.00 | 0.00 | 26 | 1020.0 |
| 20260906200746 | 79 | 175 | 5.2 | 7.0 | 0.00 | 0.00 | 0.00 | 27 | 1019.9 |
| 20260906200242 | 79 | 184 | 5.2 | 6.1 | 0.00 | 0.00 | 0.00 | 26 | 1020.0 |
| 20260906195737 | 80 | 202 | 7.8 | 12.2 | 0.00 | 0.00 | 0.00 | 25 | 1020.0 |
| 20260906195233 | 79 | 188 | 3.5 | 6.1 | 0.00 | 0.00 | 0.00 | 26 | 1020.0 |
| 20260906194730 | 79 | 209 | 4.3 | 5.2 | 0.00 | 0.00 | 0.00 | 27 | 1020.3 |
| 20260906194225 | 79 | 228 | 6.1 | 13.0 | 0.00 | 0.00 | 0.00 | 27 | 1020.6 |
| 20260906193720 | 80 | 225 | 6.1 | 7.8 | 0.00 | 0.00 | 0.00 | 25 | 1020.3 |
| 20260906193220 | 79 | 210 | 7.0 | 8.7 | 0.00 | 0.00 | 0.00 | 26 | 1020.3 |
| 20260906192716 | 78 | 187 | 5.2 | 8.7 | 0.00 | 0.00 | 0.00 | 27 | 1020.2 |
| 20260906192210 | 77 | 215 | 8.7 | 11.3 | 0.00 | 0.00 | 0.00 | 27 | 1020.2 |
| 20260906191710 | 77 | 202 | 4.3 | 6.1 | 0.00 | 0.00 | 0.00 | 27 | 1020.2 |
| 20260906191204 | 78 | 236 | 7.0 | 8.7 | 0.00 | 0.00 | 0.00 | 27 | 1020.6 |
| 20260906190704 | 78 | 213 | 3.5 | 3.5 | 0.00 | 0.00 | 0.00 | 26 | 1020.7 |
| 20260906190159 | 78 | 221 | 8.7 | 12.2 | 0.00 | 0.00 | 0.00 | 26 | 1020.8 |
| 20260906185658 | 77 | 176 | 2.6 | 3.5 | 0.00 | 0.00 | 0.00 | 26 | 1020.9 |
| 20260906185157 | 79 | 200 | 9.6 | 12.2 | 0.00 | 0.00 | 0.00 | 25 | 1020.5 |
| 20260906184651 | 78 | 104 | 4.3 | 7.0 | 0.00 | 0.00 | 0.00 | 26 | 1020.6 |
| 20260906184147 | 78 | 181 | 4.3 | 5.2 | 0.00 | 0.00 | 0.00 | 26 | 1020.8 |
| 20260906183642 | 78 | 184 | 10.4 | 16.5 | 0.00 | 0.00 | 0.00 | 25 | 1020.6 |
| 20260906183139 | 79 | 218 | 6.1 | 7.0 | 0.00 | 0.00 | 0.00 | 24 | 1020.7 |
| 20260906182639 | 79 | 205 | 6.1 | 7.8 | 0.00 | 0.00 | 0.00 | 24 | 1020.6 |
| 20260906182135 | 79 | 179 | 7.0 | 9.6 | 0.00 | 0.00 | 0.00 | 24 | 1020.7 |
| 20260906181630 | 78 | 219 | 7.0 | 11.3 | 0.00 | 0.00 | 0.00 | 24 | 1020.8 |
| 20260906181126 | 79 | 189 | 6.1 | 12.2 | 0.00 | 0.00 | 0.00 | 25 | 1021.0 |
| 20260906180621 | 78 | 205 | 5.2 | 6.1 | 0.00 | 0.00 | 0.00 | 24 | 1020.8 |
| 20260906180121 | 78 | 197 | 7.0 | 8.7 | 0.00 | 0.00 | 0.00 | 25 | 1020.7 |
| 20260906175619 | 78 | 210 | 3.5 | 5.2 | 0.00 | 0.00 | 0.00 | 25 | 1021.2 |
| 20260906175114 | 79 | 199 | 3.5 | 5.2 | 0.00 | 0.00 | 0.00 | 24 | 1020.8 |
| 20260906174612 | 78 | 156 | 3.5 | 3.5 | 0.00 | 0.00 | 0.00 | 24 | 1021.0 |
| 20260906174107 | 78 | 186 | 5.2 | 7.0 | 0.00 | 0.00 | 0.00 | 24 | 1020.8 |
| 20260906173602 | 78 | 188 | 2.6 | 3.5 | 0.00 | 0.00 | 0.00 | 24 | 1021.2 |
| 20260906173058 | 77 | 196 | 0.9 | 0.9 | 0.00 | 0.00 | 0.00 | 26 | 1021.5 |
| 20260906172557 | 76 | 202 | 2.6 | 2.6 | 0.00 | 0.00 | 0.00 | 25 | 1021.5 |
| 20260906172053 | 78 | 229 | 5.2 | 7.0 | 0.00 | 0.00 | 0.00 | 25 | 1021.8 |
| 20260906171553 | 78 | 232 | 4.3 | 5.2 | 0.00 | 0.00 | 0.00 | 24 | 1021.2 |
| 20260906171049 | 78 | 234 | 4.3 | 6.1 | 0.00 | 0.00 | 0.00 | 25 | 1021.0 |
| 20260906170544 | 78 | 192 | 4.3 | 5.2 | 0.00 | 0.00 | 0.00 | 26 | 1021.4 |
| 20260906170043 | 77 | 188 | 4.3 | 7.0 | 0.00 | 0.00 | 0.00 | 26 | 1021.5 |
| 20260906165540 | 77 | 187 | 2.6 | 5.2 | 0.00 | 0.00 | 0.00 | 26 | 1021.4 |
| 20260906165035 | 77 | 195 | 3.5 | 7.0 | 0.00 | 0.00 | 0.00 | 26 | 1021.5 |
| 20260906164534 | 77 | 233 | 3.5 | 5.2 | 0.00 | 0.00 | 0.00 | 26 | 1021.9 |
| 20260906164030 | 77 | 150 | 1.7 | 2.6 | 0.00 | 0.00 | 0.00 | 27 | 1021.8 |
| 20260906163526 | 76 | 201 | 1.7 | 2.6 | 0.00 | 0.00 | 0.00 | 27 | 1021.9 |
| 20260906163021 | 76 | 217 | 7.8 | 9.6 | 0.00 | 0.00 | 0.00 | 27 | 1021.9 |
| 20260906162518 | 76 | 184 | 4.3 | 5.2 | 0.00 | 0.00 | 0.00 | 28 | 1021.6 |
| 20260906162013 | 76 | 212 | 6.1 | 8.7 | 0.00 | 0.00 | 0.00 | 28 | 1021.9 |
| 20260906161508 | 76 | 195 | 3.5 | 5.2 | 0.00 | 0.00 | 0.00 | 28 | 1021.9 |
| 20260906161008 | 76 | 198 | 2.6 | 2.6 | 0.00 | 0.00 | 0.00 | 29 | 1021.9 |
| 20260906160506 | 76 | 197 | 3.5 | 5.2 | 0.00 | 0.00 | 0.00 | 28 | 1021.9 |
| 20260906160005 | 76 | 234 | 6.1 | 7.8 | 0.00 | 0.00 | 0.00 | 29 | 1022.1 |
| 20260906155503 | 76 | 200 | 0.0 | 0.0 | 0.00 | 0.00 | 0.00 | 30 | 1022.0 |
| 20260906154959 | 75 | 191 | 1.7 | 2.6 | 0.00 | 0.00 | 0.00 | 29 | 1021.9 |
| 20260906154455 | 76 | 190 | 3.5 | 5.2 | 0.00 | 0.00 | 0.00 | 28 | 1021.9 |
| 20260906153953 | 75 | 209 | 1.7 | 1.7 | 0.00 | 0.00 | 0.00 | 29 | 1022.2 |
| 20260906153451 | 75 | 198 | 1.7 | 1.7 | 0.00 | 0.00 | 0.00 | 30 | 1022.0 |
| 20260906152948 | 75 | 205 | 0.0 | 0.0 | 0.00 | 0.00 | 0.00 | 31 | 1021.8 |
| 20260906152447 | 73 | 195 | 0.9 | 1.7 | 0.00 | 0.00 | 0.00 | 31 | 1022.0 |
| 20260906151946 | 72 | 194 | 0.9 | 1.7 | 0.00 | 0.00 | 0.00 | 31 | 1022.0 |
| 20260906151442 | 72 | 293 | 4.3 | 5.2 | 0.00 | 0.00 | 0.00 | 33 | 1021.9 |
| 20260906150938 | 72 | 203 | 0.9 | 0.9 | 0.00 | 0.00 | 0.00 | 33 | 1021.8 |
| 20260906150433 | 71 | 196 | 0.0 | 0.0 | 0.00 | 0.00 | 0.00 | 34 | 1022.1 |
| 20260906145932 | 71 | 214 | 0.0 | 0.9 | 0.00 | 0.00 | 0.00 | 36 | 1022.0 |
| 20260906145431 | 73 | 212 | 1.7 | 2.6 | 0.00 | 0.00 | 0.00 | 31 | 1022.0 |
| 20260906144926 | 73 | 198 | 0.9 | 0.9 | 0.00 | 0.00 | 0.00 | 31 | 1022.1 |
| 20260906144421 | 71 | 202 | 0.0 | 0.0 | 0.00 | 0.00 | 0.00 | 33 | 1022.0 |
| 20260906143917 | 70 | 200 | 0.0 | 0.0 | 0.00 | 0.00 | 0.00 | 34 | 1022.0 |
| 20260906143412 | 68 | 199 | 0.9 | 0.9 | 0.00 | 0.00 | 0.00 | 35 | 1021.9 |
| 20260906142908 | 67 | 203 | 0.0 | 0.9 | 0.00 | 0.00 | 0.00 | 36 | 1021.9 |
| 20260906142407 | 67 | 201 | 0.9 | 0.9 | 0.00 | 0.00 | 0.00 | 38 | 1022.0 |
| 20260906141902 | 66 | 198 | 0.0 | 0.0 | 0.00 | 0.00 | 0.00 | 37 | 1022.0 |
| 20260906141401 | 66 | 203 | 0.9 | 0.9 | 0.00 | 0.00 | 0.00 | 37 | 1021.8 |
| 20260906140856 | 65 | 197 | 0.0 | 0.0 | 0.00 | 0.00 | 0.00 | 38 | 1021.8 |
| 20260906140351 | 64 | 187 | 1.7 | 1.7 | 0.00 | 0.00 | 0.00 | 38 | 1021.9 |
| 20260906135849 | 63 | 168 | 1.7 | 2.6 | 0.00 | 0.00 | 0.00 | 39 | 1021.9 |
| 20260906135348 | 61 | 183 | 0.9 | 0.9 | 0.00 | 0.00 | 0.00 | 40 | 1021.8 |
| 20260906134844 | 60 | 172 | 0.9 | 0.9 | 0.00 | 0.00 | 0.00 | 42 | 1021.8 |
| 20260906134339 | 59 | 198 | 0.0 | 0.9 | 0.00 | 0.00 | 0.00 | 43 | 1021.6 |
| 20260906133834 | 59 | 194 | 0.0 | 0.0 | 0.00 | 0.00 | 0.00 | 43 | 1021.5 |
| 20260906133330 | 57 | 192 | 0.0 | 0.9 | 0.00 | 0.00 | 0.00 | 44 | 1021.6 |
| 20260906132825 | 57 | 189 | 0.0 | 0.9 | 0.00 | 0.00 | 0.00 | 45 | 1021.5 |
| 20260906132320 | 57 | 195 | 0.0 | 0.0 | 0.00 | 0.00 | 0.00 | 45 | 1021.5 |
| 20260906131816 | 57 | 188 | 0.0 | 0.0 | 0.00 | 0.00 | 0.00 | 44 | 1021.6 |
| 20260906131311 | 57 | 170 | 1.7 | 1.7 | 0.00 | 0.00 | 0.00 | 44 | 1021.4 |
| 20260906130807 | 57 | 195 | 0.0 | 0.0 | 0.00 | 0.00 | 0.00 | 45 | 1021.3 |
| 20260906130306 | 57 | 176 | 0.9 | 1.7 | 0.00 | 0.00 | 0.00 | 44 | 1021.4 |
| 20260906125805 | 57 | 196 | 0.0 | 0.9 | 0.00 | 0.00 | 0.00 | 44 | 1021.4 |
| 20260906125306 | 57 | 195 | 0.9 | 0.9 | 0.00 | 0.00 | 0.00 | 44 | 1021.4 |
| 20260906124758 | 57 | 191 | 0.9 | 0.9 | 0.00 | 0.00 | 0.00 | 44 | 1021.3 |
| 20260906124254 | 57 | 183 | 0.9 | 0.9 | 0.00 | 0.00 | 0.00 | 44 | 1021.4 |
| 20260906123753 | 57 | 191 | 0.0 | 0.9 | 0.00 | 0.00 | 0.00 | 43 | 1021.4 |
| 20260906123248 | 58 | 191 | 0.9 | 1.7 | 0.00 | 0.00 | 0.00 | 43 | 1021.3 |
| 20260906122747 | 58 | 197 | 0.9 | 1.7 | 0.00 | 0.00 | 0.00 | 42 | 1021.3 |
| 20260906122243 | 58 | 188 | 0.9 | 0.9 | 0.00 | 0.00 | 0.00 | 42 | 1021.3 |
| 20260906121739 | 57 | 186 | 0.0 | 0.9 | 0.00 | 0.00 | 0.00 | 43 | 1021.4 |
| 20260906121235 | 57 | 184 | 0.0 | 0.9 | 0.00 | 0.00 | 0.00 | 44 | 1021.4 |
| 20260906120731 | 58 | 197 | 0.0 | 0.0 | 0.00 | 0.00 | 0.00 | 43 | 1021.3 |
| 20260906120228 | 59 | 196 | 0.0 | 0.0 | 0.00 | 0.00 | 0.00 | 41 | 1021.3 |
| 20260906115723 | 60 | 194 | 0.0 | 0.9 | 0.00 | 0.00 | 0.00 | 39 | 1021.3 |
| 20260906115218 | 61 | 190 | 0.9 | 0.9 | 0.00 | 0.00 | 0.00 | 38 | 1021.2 |
| 20260906114717 | 61 | 183 | 1.7 | 2.6 | 0.00 | 0.00 | 0.00 | 37 | 1021.5 |
| 20260906114212 | 61 | 197 | 1.7 | 1.7 | 0.00 | 0.00 | 0.00 | 37 | 1021.4 |
| 20260906113707 | 61 | 189 | 0.9 | 0.9 | 0.00 | 0.00 | 0.00 | 37 | 1021.2 |
| 20260906113207 | 61 | 198 | 0.0 | 0.0 | 0.00 | 0.00 | 0.00 | 37 | 1021.3 |
| 20260906112706 | 61 | 191 | 0.0 | 0.0 | 0.00 | 0.00 | 0.00 | 37 | 1021.4 |
| 20260906112203 | 61 | 188 | 0.9 | 0.9 | 0.00 | 0.00 | 0.00 | 37 | 1021.5 |
| 20260906111703 | 61 | 193 | 0.0 | 0.9 | 0.00 | 0.00 | 0.00 | 37 | 1021.4 |
| 20260906111157 | 61 | 190 | 0.0 | 0.9 | 0.00 | 0.00 | 0.00 | 37 | 1021.4 |
| 20260906110652 | 61 | 208 | 1.7 | 2.6 | 0.00 | 0.00 | 0.00 | 37 | 1021.5 |
| 20260906110148 | 61 | 190 | 0.0 | 0.9 | 0.00 | 0.00 | 0.00 | 37 | 1021.6 |
| 20260906105642 | 61 | 195 | 0.9 | 0.9 | 0.00 | 0.00 | 0.00 | 37 | 1021.4 |
| 20260906105138 | 61 | 195 | 0.0 | 0.0 | 0.00 | 0.00 | 0.00 | 37 | 1021.4 |
| 20260906104638 | 61 | 196 | 0.0 | 0.0 | 0.00 | 0.00 | 0.00 | 36 | 1021.5 |
| 20260906104136 | 61 | 193 | 0.0 | 0.0 | 0.00 | 0.00 | 0.00 | 36 | 1021.4 |
| 20260906103635 | 61 | 191 | 0.0 | 0.9 | 0.00 | 0.00 | 0.00 | 36 | 1021.2 |
| 20260906103131 | 60 | 198 | 0.0 | 0.9 | 0.00 | 0.00 | 0.00 | 36 | 1021.4 |
| 20260906102626 | 61 | 192 | 0.0 | 0.0 | 0.00 | 0.00 | 0.00 | 36 | 1021.2 |
| 20260906102126 | 61 | 197 | 0.0 | 0.0 | 0.00 | 0.00 | 0.00 | 35 | 1021.2 |
| 20260906101625 | 61 | 193 | 0.0 | 0.0 | 0.00 | 0.00 | 0.00 | 35 | 1021.4 |
| 20260906101125 | 61 | 191 | 0.0 | 0.0 | 0.00 | 0.00 | 0.00 | 35 | 1021.0 |
| 20260906100622 | 61 | 196 | 0.0 | 0.0 | 0.00 | 0.00 | 0.00 | 36 | 1020.9 |
| 20260906100122 | 61 | 193 | 0.0 | 0.0 | 0.00 | 0.00 | 0.00 | 35 | 1021.3 |
| 20260906095622 | 61 | 194 | 0.9 | 0.9 | 0.00 | 0.00 | 0.00 | 35 | 1021.3 |
| 20260906095118 | 61 | 191 | 0.9 | 0.9 | 0.00 | 0.00 | 0.00 | 35 | 1021.4 |
| 20260906094616 | 61 | 195 | 0.0 | 0.0 | 0.00 | 0.00 | 0.00 | 35 | 1021.2 |
| 20260906094112 | 60 | 191 | 0.9 | 1.7 | 0.00 | 0.00 | 0.00 | 36 | 1021.3 |
| 20260906093608 | 61 | 179 | 0.0 | 0.0 | 0.00 | 0.00 | 0.00 | 36 | 1021.3 |
| 20260906093103 | 61 | 190 | 0.9 | 0.9 | 0.00 | 0.00 | 0.00 | 36 | 1021.2 |
| 20260906092558 | 61 | 190 | 0.9 | 0.9 | 0.00 | 0.00 | 0.00 | 35 | 1021.4 |
| 20260906092053 | 61 | 162 | 0.0 | 0.0 | 0.00 | 0.00 | 0.00 | 35 | 1021.3 |
| 20260906091549 | 62 | 181 | 0.9 | 0.9 | 0.00 | 0.00 | 0.00 | 35 | 1021.3 |
| 20260906091045 | 62 | 190 | 0.9 | 0.9 | 0.00 | 0.00 | 0.00 | 34 | 1021.5 |
| 20260906090545 | 62 | 188 | 1.7 | 2.6 | 0.00 | 0.00 | 0.00 | 34 | 1021.2 |
| 20260906090040 | 62 | 182 | 2.6 | 5.2 | 0.00 | 0.00 | 0.00 | 34 | 1021.0 |
| 20260906085539 | 63 | 182 | 0.9 | 1.7 | 0.00 | 0.00 | 0.00 | 33 | 1021.0 |
| 20260906085038 | 63 | 161 | 1.7 | 2.6 | 0.00 | 0.00 | 0.00 | 33 | 1021.2 |
| 20260906084533 | 63 | 190 | 1.7 | 1.7 | 0.00 | 0.00 | 0.00 | 33 | 1021.2 |
| 20260906084032 | 63 | 184 | 0.9 | 0.9 | 0.00 | 0.00 | 0.00 | 32 | 1021.3 |
| 20260906083528 | 63 | 195 | 0.9 | 0.9 | 0.00 | 0.00 | 0.00 | 33 | 1021.0 |
| 20260906083027 | 62 | 193 | 0.9 | 0.9 | 0.00 | 0.00 | 0.00 | 33 | 1021.0 |
| 20260906082522 | 62 | 194 | 0.0 | 0.0 | 0.00 | 0.00 | 0.00 | 34 | 1021.2 |
| 20260906082019 | 62 | 192 | 1.7 | 2.6 | 0.00 | 0.00 | 0.00 | 33 | 1020.9 |
| 20260906081514 | 62 | 185 | 0.9 | 1.7 | 0.00 | 0.00 | 0.00 | 34 | 1020.8 |
| 20260906081009 | 61 | 192 | 0.0 | 0.0 | 0.00 | 0.00 | 0.00 | 34 | 1020.9 |
| 20260906080506 | 61 | 153 | 0.9 | 1.7 | 0.00 | 0.00 | 0.00 | 35 | 1021.3 |
| 20260906080001 | 62 | 179 | 0.9 | 0.9 | 0.00 | 0.00 | 0.00 | 35 | 1021.2 |
| 20260906075455 | 61 | 194 | 0.0 | 0.9 | 0.00 | 0.00 | 0.00 | 34 | 1021.0 |
| 20260906074951 | 61 | 196 | 0.0 | 0.0 | 0.00 | 0.00 | 0.00 | 35 | 1021.2 |
| 20260906074451 | 62 | 190 | 0.9 | 0.9 | 0.00 | 0.00 | 0.00 | 34 | 1021.3 |
| 20260906073949 | 62 | 181 | 0.9 | 0.9 | 0.00 | 0.00 | 0.00 | 33 | 1021.4 |
| 20260906073444 | 61 | 181 | 1.7 | 1.7 | 0.00 | 0.00 | 0.00 | 34 | 1021.3 |
| 20260906072941 | 61 | 193 | 0.9 | 0.9 | 0.00 | 0.00 | 0.00 | 35 | 1021.3 |
| 20260906072435 | 62 | 192 | 1.7 | 1.7 | 0.00 | 0.00 | 0.00 | 34 | 1021.2 |
| 20260906071932 | 62 | 190 | 3.5 | 3.5 | 0.00 | 0.00 | 0.00 | 34 | 1021.3 |
| 20260906071427 | 62 | 181 | 0.9 | 1.7 | 0.00 | 0.00 | 0.00 | 34 | 1021.3 |
| 20260906070923 | 63 | 173 | 2.6 | 2.6 | 0.00 | 0.00 | 0.00 | 34 | 1021.3 |
| 20260906070419 | 62 | 161 | 2.6 | 2.6 | 0.00 | 0.00 | 0.00 | 34 | 1021.2 |
| 20260906065915 | 62 | 187 | 0.9 | 0.9 | 0.00 | 0.00 | 0.00 | 34 | 1021.4 |
| 20260906065409 | 62 | 166 | 2.6 | 2.6 | 0.00 | 0.00 | 0.00 | 34 | 1021.3 |
| 20260906064905 | 62 | 155 | 1.7 | 1.7 | 0.00 | 0.00 | 0.00 | 34 | 1021.3 |
| 20260906064401 | 62 | 87 | 3.5 | 3.5 | 0.00 | 0.00 | 0.00 | 34 | 1021.3 |
| 20260906063900 | 62 | 189 | 0.9 | 0.9 | 0.00 | 0.00 | 0.00 | 35 | 1021.3 |
| 20260906063355 | 61 | 182 | 0.9 | 1.7 | 0.00 | 0.00 | 0.00 | 34 | 1021.2 |
| 20260906062851 | 62 | 164 | 1.7 | 2.6 | 0.00 | 0.00 | 0.00 | 34 | 1020.9 |
| 20260906062350 | 62 | 178 | 1.7 | 1.7 | 0.00 | 0.00 | 0.00 | 34 | 1021.2 |
| 20260906061845 | 61 | 185 | 0.9 | 1.7 | 0.00 | 0.00 | 0.00 | 34 | 1021.0 |
| 20260906061342 | 62 | 112 | 2.6 | 3.5 | 0.00 | 0.00 | 0.00 | 34 | 1020.9 |
| 20260906060836 | 62 | 180 | 1.7 | 1.7 | 0.00 | 0.00 | 0.00 | 33 | 1020.8 |
| 20260906060334 | 62 | 168 | 1.7 | 1.7 | 0.00 | 0.00 | 0.00 | 33 | 1021.0 |
| 20260906055830 | 63 | 167 | 1.7 | 1.7 | 0.00 | 0.00 | 0.00 | 32 | 1020.9 |
| 20260906055325 | 63 | 168 | 1.7 | 2.6 | 0.00 | 0.00 | 0.00 | 32 | 1020.8 |
| 20260906054820 | 63 | 163 | 1.7 | 1.7 | 0.00 | 0.00 | 0.00 | 31 | 1021.3 |
| 20260906054315 | 64 | 170 | 2.6 | 2.6 | 0.00 | 0.00 | 0.00 | 31 | 1021.0 |
| 20260906053812 | 64 | 167 | 1.7 | 1.7 | 0.00 | 0.00 | 0.00 | 32 | 1021.0 |
| 20260906053307 | 64 | 147 | 2.6 | 3.5 | 0.00 | 0.00 | 0.00 | 31 | 1021.0 |
| 20260906052802 | 64 | 120 | 3.5 | 5.2 | 0.00 | 0.00 | 0.00 | 32 | 1021.0 |
| 20260906052258 | 63 | 82 | 2.6 | 3.5 | 0.00 | 0.00 | 0.00 | 32 | 1021.2 |
| 20260906051755 | 63 | 168 | 1.7 | 2.6 | 0.00 | 0.00 | 0.00 | 32 | 1021.0 |
| 20260906051254 | 64 | 175 | 1.7 | 1.7 | 0.00 | 0.00 | 0.00 | 31 | 1021.0 |
| 20260906050750 | 64 | 180 | 1.7 | 1.7 | 0.00 | 0.00 | 0.00 | 31 | 1020.9 |
| 20260906050245 | 63 | 178 | 0.9 | 1.7 | 0.00 | 0.00 | 0.00 | 31 | 1021.2 |
| 20260906045744 | 64 | 174 | 1.7 | 1.7 | 0.00 | 0.00 | 0.00 | 31 | 1021.2 |
| 20260906045239 | 64 | 178 | 1.7 | 2.6 | 0.00 | 0.00 | 0.00 | 31 | 1020.9 |
| 20260906044735 | 64 | 176 | 0.9 | 1.7 | 0.00 | 0.00 | 0.00 | 31 | 1021.3 |
| 20260906044229 | 64 | 159 | 1.7 | 2.6 | 0.00 | 0.00 | 0.00 | 30 | 1021.2 |
| 20260906043726 | 64 | 169 | 2.6 | 3.5 | 0.00 | 0.00 | 0.00 | 30 | 1020.9 |
| 20260906043221 | 65 | 187 | 1.7 | 1.7 | 0.00 | 0.00 | 0.00 | 30 | 1021.3 |
| 20260906042721 | 65 | 190 | 0.9 | 1.7 | 0.00 | 0.00 | 0.00 | 30 | 1021.0 |
| 20260906042220 | 66 | 182 | 1.7 | 2.6 | 0.00 | 0.00 | 0.00 | 29 | 1021.2 |
| 20260906041716 | 66 | 189 | 1.7 | 2.6 | 0.00 | 0.00 | 0.00 | 29 | 1020.9 |
| 20260906041211 | 65 | 66 | 3.5 | 6.1 | 0.00 | 0.00 | 0.00 | 30 | 1021.0 |
| 20260906040706 | 65 | 190 | 5.2 | 6.1 | 0.00 | 0.00 | 0.00 | 31 | 1020.8 |
| 20260906040201 | 65 | 170 | 2.6 | 2.6 | 0.00 | 0.00 | 0.00 | 31 | 1020.9 |
| 20260906035657 | 65 | 194 | 3.5 | 3.5 | 0.00 | 0.00 | 0.00 | 31 | 1020.8 |
| 20260906035153 | 65 | 120 | 1.7 | 2.6 | 0.00 | 0.00 | 0.00 | 30 | 1020.9 |
| 20260906034647 | 65 | 181 | 3.5 | 6.1 | 0.00 | 0.00 | 0.00 | 30 | 1020.8 |
| 20260906034142 | 65 | 194 | 1.7 | 1.7 | 0.00 | 0.00 | 0.00 | 31 | 1021.0 |
| 20260906033638 | 65 | 192 | 0.0 | 0.9 | 0.00 | 0.00 | 0.00 | 30 | 1020.9 |
| 20260906033137 | 64 | 191 | 0.9 | 1.7 | 0.00 | 0.00 | 0.00 | 31 | 1020.8 |
| 20260906032635 | 65 | 185 | 0.0 | 0.9 | 0.00 | 0.00 | 0.00 | 31 | 1020.5 |
| 20260906032134 | 65 | 187 | 0.0 | 0.0 | 0.00 | 0.00 | 0.00 | 31 | 1020.6 |
| 20260906031629 | 64 | 178 | 3.5 | 5.2 | 0.00 | 0.00 | 0.00 | 31 | 1020.3 |
| 20260906031125 | 65 | 155 | 2.6 | 2.6 | 0.00 | 0.00 | 0.00 | 30 | 1020.5 |
| 20260906030624 | 66 | 196 | 0.0 | 0.9 | 0.00 | 0.00 | 0.00 | 29 | 1020.3 |
| 20260906030119 | 65 | 188 | 1.7 | 2.6 | 0.00 | 0.00 | 0.00 | 29 | 1020.2 |
| 20260906025619 | 65 | 178 | 1.7 | 2.6 | 0.00 | 0.00 | 0.00 | 29 | 1020.2 |
| 20260906025118 | 65 | 173 | 0.9 | 1.7 | 0.00 | 0.00 | 0.00 | 30 | 1020.1 |
| 20260906024613 | 65 | 171 | 0.9 | 0.9 | 0.00 | 0.00 | 0.00 | 29 | 1020.1 |
| 20260906024107 | 67 | 181 | 1.7 | 1.7 | 0.00 | 0.00 | 0.00 | 28 | 1019.9 |
| 20260906023604 | 68 | 175 | 1.7 | 1.7 | 0.00 | 0.00 | 0.00 | 27 | 1020.0 |
| 20260906023103 | 68 | 185 | 1.7 | 1.7 | 0.00 | 0.00 | 0.00 | 27 | 1019.7 |
| 20260906022558 | 67 | 178 | 1.7 | 2.6 | 0.00 | 0.00 | 0.00 | 27 | 1019.5 |
| 20260906022054 | 67 | 190 | 0.9 | 0.9 | 0.00 | 0.00 | 0.00 | 28 | 1019.4 |
| 20260906021550 | 67 | 186 | 1.7 | 2.6 | 0.00 | 0.00 | 0.00 | 29 | 1019.3 |
| 20260906021048 | 68 | 164 | 0.9 | 0.9 | 0.00 | 0.00 | 0.00 | 28 | 1019.3 |
| 20260906020548 | 69 | 129 | 3.5 | 3.5 | 0.00 | 0.00 | 0.00 | 28 | 1019.3 |
| 20260906020048 | 70 | 186 | 0.9 | 0.9 | 0.00 | 0.00 | 0.00 | 26 | 1019.4 |
| 20260906015548 | 71 | 192 | 0.0 | 0.9 | 0.00 | 0.00 | 0.00 | 25 | 1019.3 |
| 20260906015047 | 72 | 191 | 0.0 | 0.0 | 0.00 | 0.00 | 0.00 | 24 | 1019.3 |
| 20260906014542 | 73 | 193 | 0.0 | 0.9 | 0.00 | 0.00 | 0.00 | 23 | 1019.4 |
| 20260906014038 | 74 | 196 | 0.0 | 0.0 | 0.00 | 0.00 | 0.00 | 24 | 1019.3 |
| 20260906013533 | 76 | 184 | 1.7 | 1.7 | 0.00 | 0.00 | 0.00 | 24 | 1019.4 |
| 20260906013029 | 77 | 208 | 0.9 | 1.7 | 0.00 | 0.00 | 0.00 | 22 | 1019.1 |
| 20260906012524 | 78 | 208 | 1.7 | 1.7 | 0.00 | 0.00 | 0.00 | 22 | 1019.4 |
| 20260906012023 | 78 | 232 | 2.6 | 2.6 | 0.00 | 0.00 | 0.00 | 21 | 1019.3 |
| 20260906011519 | 79 | 218 | 2.6 | 2.6 | 0.00 | 0.00 | 0.00 | 21 | 1019.3 |
| 20260906011019 | 79 | 225 | 3.5 | 5.2 | 0.00 | 0.00 | 0.00 | 20 | 1019.5 |
| 20260906010514 | 80 | 213 | 3.5 | 5.2 | 0.00 | 0.00 | 0.00 | 20 | 1019.5 |
| 20260906010011 | 80 | 209 | 3.5 | 5.2 | 0.00 | 0.00 | 0.00 | 20 | 1019.5 |
| 20260906005510 | 80 | 252 | 3.5 | 3.5 | 0.00 | 0.00 | 0.00 | 20 | 1019.3 |
| 20260906005009 | 80 | 224 | 3.5 | 5.2 | 0.00 | 0.00 | 0.00 | 19 | 1019.5 |
| 20260906004509 | 80 | 236 | 5.2 | 7.0 | 0.00 | 0.00 | 0.00 | 19 | 1019.5 |
| 20260906004004 | 81 | 216 | 2.6 | 2.6 | 0.00 | 0.00 | 0.00 | 19 | 1019.4 |
| 20260906003459 | 81 | 231 | 5.2 | 7.0 | 0.00 | 0.00 | 0.00 | 19 | 1019.5 |
| 20260906002954 | 81 | 216 | 5.2 | 7.0 | 0.00 | 0.00 | 0.00 | 18 | 1019.3 |
| 20260906002454 | 81 | 287 | 7.0 | 7.8 | 0.00 | 0.00 | 0.00 | 19 | 1019.3 |
| 20260906001950 | 81 | 246 | 3.5 | 5.2 | 0.00 | 0.00 | 0.00 | 19 | 1019.3 |
| 20260906001446 | 81 | 259 | 6.1 | 7.0 | 0.00 | 0.00 | 0.00 | 19 | 1019.3 |
| 20260906000940 | 82 | 268 | 7.0 | 8.7 | 0.00 | 0.00 | 0.00 | 18 | 1019.5 |
| 20260906000436 | 81 | 223 | 3.5 | 5.2 | 0.00 | 0.00 | 0.00 | 19 | 1019.3 |
| 20260905235930 | 81 | 254 | 5.2 | 6.1 | 0.00 | 0.00 | 0.00 | 19 | 1019.1 |
| 20260905235430 | 82 | 260 | 7.8 | 8.7 | 0.00 | 0.00 | 0.00 | 18 | 1019.0 |